Hauptseite
METAR-TAF:

METAR-TAF

Flughäfen :

Johannesburg, Südafrika

Breite: 26-09S, Länge: 28-00E, Höhe: 1626 m

Beobachtung

Neuester Wetterbericht von vor 56 Minuten, um 12:00 UTC
Wind 1 kt aus Südwest
Temperatur 25°C
Luftfeuchtigkeit 41%
Luftdruck 1023 hPa

METAR: FAJB 291200Z AUTO 23001KT //// // ////// 25/11 Q1023

Zeit: 14:56 (12:56 UTC)


TAF: fehlend

Wetterbeobachtungen und Prognosen von mehr als 4000 Flughäfen (METAR und TAF Bericht).

Die verfügbaren Stationen werden durch gelbe und rote Markierungen auf der Karte dargestellt.

Führen Sie die Maus auf sie, um den Namen der Station zu sehen.

Darauf klicken, um die Beobachtung von Wetterbeobachtungen und Prognosen zu sehen.

Um die Karte zu ändern : klicken Sie auf den grünen Tasten mit einem schwarzen Kreuz Zum Vergrößern, auf den grünen Button mit einem Gedankenstrich zu verkleinern, oder auf die grünen Pfeile für benachbarte Karten.


METAR-TAF: